[[{"header":{"parameterUnit":"m.s-1","parameterCategory":1,"la1":30.2991,"la2":30.254,"lo1":-89.0895,"lo2":-89.0444,"dy":0.0017,"dx":0.0017,"nx":28,"ny":28,"refTime":"2024-05-16T21:00:00:Z","depth":0,"parameterNumber":2,"parameterNumberName":"U-component_of_WINDS"},"data":[0,0,0,0,0,0,0,0,0,0,0,0,0,0,0,0,0,0,0,0,0,0,0,0,0,0,0,0,0,0,0,0,0,0,0,0,0,0,0,0,0,0,0,0,0,0,0,0,0,0,0,0,0,0,0,0,0,0,-0.2653,-0.2652,0,-0.2618,-0.2617,-0.2617,-0.2666,-0.2668,-0.2669,-0.2671,-0.2631,-0.2628,-0.2625,0,0,0,0,0,0,0,0,0,0,0,0,0,-0.2756,-0.2754,-0.2653,-0.2652,-0.2652,-0.2618,-0.2617,-0.2617,-0.2666,-0.2668,-0.267,-0.2672,-0.2632,-0.2628,-0.2625,0,0,0,0,0,0,0,0,0,0,0,0,0,-0.2715,-0.2753,-0.2653,-0.2672,-0.2673,-0.2618,-0.2617,-0.2617,-0.2665,-0.2668,-0.267,-0.2673,-0.2633,-0.2629,-0.2625,-0.2547,0,0,-0.2612,-0.2611,0,0,0,0,0,0,0,0,-0.2717,-0.2711,-0.267,-0.2671,-0.2672,-0.2649,-0.2639,-0.2593,-0.2664,-0.2668,-0.2671,-0.2674,-0.2634,-0.263,-0.2618,-0.2545,-0.2543,-0.2612,-0.261,-0.2608,-0.2607,0,0,0,0,0,0,0,-0.272,-0.2713,-0.2639,-0.2669,-0.267,-0.2681,-0.2678,-0.2631,-0.2637,-0.2668,-0.2672,-0.2667,-0.2636,-0.2622,-0.2617,-0.2543,-0.2612,-0.2608,-0.2606,-0.2604,-0.2401,-0.2399,0,0,0,0,0,0,-0.2721,-0.2715,-0.264,-0.2638,-0.2702,-0.2677,-0.2674,-0.2654,-0.2637,-0.2638,-0.2665,-0.2669,-0.2627,-0.2622,-0.2616,-0.2522,-0.2608,-0.2604,-0.2602,-0.2404,-0.2401,-0.2398,0,0,0,0,0,0,-0.2723,-0.2714,-0.2641,-0.2677,-0.2669,-0.2672,-0.2649,-0.2652,-0.2638,-0.2635,-0.2636,-0.265,-0.2629,-0.2622,-0.2563,-0.2521,-0.2602,-0.2598,-0.2408,-0.2403,-0.2399,-0.2333,0,0,0,0,0,0,-0.2726,-0.2715,-0.2686,-0.2676,-0.2667,-0.259,-0.2647,-0.2649,-0.2631,-0.2637,-0.2621,-0.2621,-0.2631,-0.2569,-0.2559,-0.2517,-0.2595,-0.2412,-0.2406,-0.2401,-0.2339,-0.2327,-0.2317,0,0,0,0,0,-0.273,-0.2669,-0.2685,-0.2675,-0.2632,-0.2588,-0.2582,-0.2596,-0.2628,-0.2598,-0.2596,-0.2622,-0.2528,-0.2563,-0.2552,-0.2508,-0.2414,-0.2407,-0.2401,-0.2344,-0.233,-0.2317,0,0,0,0,0,0,-0.2673,-0.2668,-0.2685,-0.262,-0.2604,-0.2597,-0.256,-0.258,-0.2554,-0.256,-0.2577,-0.2573,-0.251,-0.2504,-0.2543,-0.243,-0.2476,-0.2467,-0.2437,-0.2423,-0.2412,-0.2413,-0.2592,0,0,0,0,0,-0.2653,-0.262,-0.2617,-0.2559,-0.255,-0.2556,-0.2538,-0.255,-0.2533,-0.2526,-0.252,-0.2502,-0.2468,-0.2445,-0.2414,-0.2339,-0.2335,-0.2303,-0.2292,-0.2283,-0.2274,-0.2231,-0.2216,-0.2376,-0.2376,-0.2376,0,0,-0.2611,-0.2604,-0.2582,-0.2547,-0.2537,-0.2499,-0.255,-0.2509,-0.2481,-0.252,-0.2464,-0.2459,-0.2439,-0.2371,-0.2341,-0.2364,-0.2229,-0.2275,-0.2267,-0.2263,-0.2222,-0.2207,-0.2194,-0.2371,-0.2372,-0.2373,0,0,-0.2515,-0.2508,-0.2458,-0.2446,-0.2429,-0.2433,-0.2421,-0.241,-0.2408,-0.2353,-0.238,-0.2346,-0.2289,-0.2273,-0.2257,-0.2154,-0.2175,-0.2143,-0.2084,-0.2041,-0.2029,-0.2018,-0.1978,-0.1964,-0.2135,-0.2135,-0.2135,0,-0.2464,-0.2411,-0.2429,-0.2386,-0.2368,-0.2403,-0.2351,-0.2338,-0.2311,-0.2297,-0.2324,-0.2251,-0.224,-0.2168,-0.2142,-0.213,-0.2114,-0.2144,-0.203,-0.2018,-0.2008,-0.197,-0.1956,-0.2131,-0.2131,-0.2132,-0.2132,0,-0.2348,-0.2311,-0.2272,-0.2246,-0.2225,-0.2177,-0.2186,-0.2162,-0.2175,-0.2176,-0.2118,-0.2106,-0.2072,-0.2057,-0.2069,-0.1985,-0.1999,-0.2027,-0.2073,-0.1989,-0.1953,-0.1939,-0.2125,-0.2126,-0.2128,-0.2129,0,0,-0.2215,-0.2199,-0.2184,-0.2172,-0.2155,-0.2126,-0.2079,-0.2047,-0.2024,-0.2004,-0.1963,-0.1913,-0.1939,-0.1921,-0.1932,-0.1895,-0.181,-0.1927,-0.1927,-0.1903,-0.1713,-0.169,-0.1673,-0.1825,-0.1822,-0.182,-0.1714,0,-0.2117,-0.2037,-0.2051,-0.1973,-0.1937,-0.1968,-0.1927,-0.1911,-0.191,-0.1878,-0.1877,-0.184,-0.1877,-0.1866,-0.1832,-0.1828,-0.1771,-0.1836,-0.1784,-0.1782,-0.1785,-0.1655,-0.1631,-0.1531,-0.17,-0.1698,-0.1696,0,-0.1992,-0.1968,-0.1886,-0.1873,-0.1858,-0.1821,-0.1792,-0.1762,-0.1743,-0.1745,-0.1724,-0.1742,-0.1692,-0.1741,-0.1671,-0.1714,-0.1694,-0.1689,-0.1685,-0.1679,-0.1732,-0.1642,-0.15,-0.1483,-0.1675,-0.1677,-0.1678,0,-0.1899,-0.1847,-0.179,-0.1779,-0.1763,-0.1736,-0.1728,-0.1712,-0.1691,-0.1665,-0.1651,-0.1619,-0.1601,-0.1575,-0.1582,-0.1617,-0.1509,-0.1559,-0.1507,-0.1506,-0.1481,-0.1482,-0.133,-0.1472,-0.1473,-0.1473,-0.1473,0,-0.1787,-0.1735,-0.1748,-0.1713,-0.1654,-0.167,-0.1611,-0.1607,-0.1593,-0.1555,-0.1581,-0.1545,-0.1559,-0.1523,-0.1528,-0.1468,-0.146,-0.1458,-0.146,-0.1454,-0.1454,-0.1439,-0.1445,-0.1469,-0.147,-0.147,-0.1471,0,-0.1673,-0.168,-0.162,-0.161,-0.1606,-0.1563,-0.1554,-0.152,-0.1521,-0.1473,-0.1463,-0.1464,-0.1423,-0.1428,-0.1383,-0.1386,-0.131,-0.1322,-0.1316,-0.1318,-0.1264,-0.1268,-0.1095,-0.1072,-0.1232,-0.123,-0.1229,0,-0.16,-0.156,-0.1546,-0.1523,-0.1513,-0.1477,-0.1456,-0.147,-0.1446,-0.1421,-0.1389,-0.1351,-0.1321,-0.1253,-0.1249,-0.1213,-0.1222,-0.1164,-0.1216,-0.1211,-0.1217,-0.1218,-0.1213,-0.1152,-0.1151,-0.1149,-0.1148,0,-0.1467,-0.1473,-0.1442,-0.1411,-0.1386,-0.1362,-0.1341,-0.132,-0.1332,-0.1304,-0.1263,-0.1239,-0.1192,-0.1153,-0.1119,-0.1108,-0.1128,-0.1132,-0.1117,-0.111,-0.1107,-0.1105,-0.1285,-0.1135,-0.1136,-0.1137,-0.1138,-0.1138,-0.137,-0.1335,-0.1319,-0.1283,-0.1269,-0.1248,-0.1215,-0.1212,-0.1178,-0.1142,-0.1152,-0.1104,-0.1085,-0.1041,-0.1027,-0.0989,-0.101,-0.099,-0.0984,-0.0978,-0.097,-0.1116,-0.0983,-0.0984,-0.0984,-0.0984,-0.0984,0,-0.1236,-0.1228,-0.1195,-0.1164,-0.1135,-0.1159,-0.1136,-0.111,-0.1068,-0.1049,-0.1019,-0.097,-0.0931,-0.0923,-0.0886,-0.0856,-0.0864,-0.0845,-0.0846,-0.0843,-0.0955,-0.097,-0.0839,-0.0839,-0.0839,-0.0839,-0.0839,-0.0839,-0.1163,-0.1105,-0.1108,-0.1042,-0.1034,-0.0988,-0.0973,-0.0952,-0.0937,-0.0882,-0.085,-0.0846,-0.083,-0.0792,-0.0756,-0.0755,-0.0738,-0.0715,-0.0717,-0.0821,-0.0835,-0.0849,-0.0863,-0.0712,-0.0712,-0.0607,-0.0606,-0.0606]},{"header":{"parameterUnit":"m.s-1","parameterCategory":1,"la1":30.2991,"la2":30.254,"lo1":-89.0895,"lo2":-89.0444,"dy":0.0017,"dx":0.0017,"nx":28,"ny":28,"refTime":"2024-05-16T21:00:00:Z","depth":0,"parameterNumber":3,"parameterNumberName":"V-component_of_WINDS"},"data":[0,0,0,0,0,0,0,0,0,0,0,0,0,0,0,0,0,0,0,0,0,0,0,0,0,0,0,0,0,0,0,0,0,0,0,0,0,0,0,0,0,0,0,0,0,0,0,0,0,0,0,0,0,0,0,0,0,0,0.6822,0.6821,0,0.6787,0.6786,0.6786,0.6812,0.6813,0.6814,0.6815,0.6779,0.6777,0.6775,0,0,0,0,0,0,0,0,0,0,0,0,0,0.6911,0.691,0.6822,0.6821,0.6821,0.6787,0.6786,0.6786,0.6812,0.6813,0.6814,0.6816,0.678,0.6777,0.6775,0,0,0,0,0,0,0,0,0,0,0,0,0,0.6874,0.6909,0.6822,0.683,0.683,0.6787,0.6786,0.6786,0.6811,0.6813,0.6815,0.6816,0.678,0.6778,0.6775,0.6722,0,0,0.6765,0.6764,0,0,0,0,0,0,0,0,0.6876,0.6871,0.6829,0.6829,0.6829,0.6805,0.6805,0.6764,0.6811,0.6818,0.6815,0.6817,0.6786,0.6783,0.6773,0.672,0.6719,0.6765,0.6763,0.6762,0.6761,0,0,0,0,0,0,0,0.6879,0.6872,0.6808,0.6828,0.6828,0.6835,0.6832,0.6797,0.6793,0.6818,0.682,0.6815,0.6787,0.6776,0.6772,0.6718,0.6765,0.6762,0.6761,0.6759,0.6623,0.6621,0,0,0,0,0,0,0.6881,0.6874,0.6809,0.6807,0.6857,0.6832,0.6828,0.6811,0.6794,0.6793,0.6814,0.6816,0.678,0.6776,0.6771,0.6709,0.6762,0.6759,0.6757,0.6625,0.6622,0.662,0,0,0,0,0,0,0.6882,0.6874,0.681,0.6841,0.6833,0.6829,0.681,0.681,0.6798,0.6791,0.679,0.6803,0.6781,0.6775,0.6734,0.6708,0.6758,0.6755,0.6627,0.6624,0.6621,0.6584,0,0,0,0,0,0,0.6885,0.6875,0.6854,0.684,0.6832,0.6774,0.6808,0.6808,0.6793,0.6796,0.678,0.6779,0.6782,0.6739,0.6731,0.6705,0.6753,0.6629,0.6626,0.6622,0.6587,0.658,0.6574,0,0,0,0,0,0.6888,0.6845,0.6853,0.6845,0.6806,0.6772,0.6767,0.6771,0.6791,0.6771,0.6766,0.678,0.6712,0.6734,0.6726,0.6698,0.6631,0.6627,0.6623,0.659,0.6582,0.6574,0,0,0,0,0,0,0.6855,0.6843,0.6852,0.6803,0.6789,0.6777,0.6751,0.6762,0.6741,0.6745,0.6751,0.6747,0.6704,0.6698,0.6722,0.6647,0.6675,0.6669,0.6653,0.6645,0.6638,0.664,0.675,0,0,0,0,0,0.6842,0.6816,0.6807,0.6765,0.6757,0.6755,0.6741,0.6745,0.673,0.6724,0.6716,0.6701,0.6677,0.6661,0.6638,0.6587,0.6584,0.6564,0.6558,0.6552,0.6546,0.652,0.6511,0.6607,0.6607,0.6607,0,0,0.6815,0.6805,0.6788,0.6758,0.6747,0.672,0.675,0.6719,0.6699,0.672,0.668,0.6675,0.6659,0.6613,0.6592,0.6606,0.652,0.6547,0.6543,0.654,0.6515,0.6506,0.6498,0.6604,0.6605,0.6605,0,0,0.6752,0.6742,0.6706,0.6695,0.6678,0.6678,0.667,0.6656,0.6653,0.6615,0.663,0.6606,0.6564,0.6552,0.6541,0.6475,0.6487,0.6468,0.6432,0.6407,0.6399,0.6392,0.6369,0.6361,0.6463,0.6463,0.6463,0,0.672,0.6679,0.6686,0.6655,0.6641,0.666,0.6624,0.6613,0.659,0.658,0.6596,0.6544,0.6534,0.6487,0.6471,0.6461,0.6452,0.6469,0.64,0.6393,0.6387,0.6365,0.6356,0.646,0.6461,0.6461,0.6461,0,0.6641,0.6613,0.6586,0.6564,0.6548,0.6514,0.6516,0.6499,0.6506,0.6504,0.6465,0.6455,0.6431,0.642,0.6426,0.6374,0.6383,0.6399,0.6426,0.6375,0.6355,0.6346,0.6457,0.6458,0.6459,0.6459,0,0,0.6553,0.6537,0.6527,0.6518,0.6503,0.6481,0.6449,0.6426,0.6412,0.6396,0.6369,0.6334,0.635,0.6337,0.6342,0.632,0.6269,0.6339,0.6339,0.6326,0.6211,0.6199,0.6189,0.6278,0.6276,0.6275,0.6213,0,0.6489,0.6433,0.6439,0.6386,0.6361,0.6379,0.6352,0.634,0.6338,0.6316,0.6315,0.629,0.6312,0.6304,0.6283,0.628,0.6246,0.6285,0.6253,0.6252,0.6256,0.6178,0.6164,0.6105,0.6205,0.6203,0.6202,0,0.6406,0.6388,0.6332,0.6322,0.6312,0.6287,0.6267,0.6246,0.6234,0.6234,0.6221,0.623,0.6199,0.6229,0.6186,0.6212,0.62,0.6197,0.6195,0.6191,0.6223,0.6171,0.6086,0.6077,0.619,0.6191,0.6192,0,0.6347,0.6309,0.6272,0.6263,0.6251,0.6233,0.6227,0.6216,0.6202,0.6185,0.6176,0.6156,0.6144,0.6129,0.6133,0.6154,0.609,0.6119,0.6089,0.6089,0.6073,0.6074,0.5984,0.6067,0.6067,0.6067,0.6068,0,0.6274,0.6239,0.6245,0.6222,0.6184,0.6192,0.6155,0.6151,0.6142,0.6119,0.6134,0.6112,0.6119,0.6098,0.6101,0.6066,0.606,0.606,0.6061,0.6058,0.6058,0.6049,0.6053,0.6065,0.6066,0.6066,0.6066,0,0.6201,0.6204,0.6164,0.6156,0.6153,0.6126,0.6119,0.6098,0.6098,0.6069,0.6062,0.6063,0.6038,0.6042,0.6015,0.6017,0.5973,0.5979,0.5977,0.5978,0.5948,0.595,0.5849,0.5836,0.5927,0.5926,0.5926,0,0.6153,0.6127,0.6117,0.6103,0.6096,0.6073,0.6059,0.6067,0.6053,0.6037,0.6018,0.5995,0.5977,0.5938,0.5936,0.5916,0.5921,0.5887,0.5918,0.5916,0.592,0.5921,0.5919,0.588,0.5879,0.5879,0.5878,0,0.6069,0.6072,0.6052,0.6033,0.6016,0.6002,0.5988,0.5976,0.5983,0.5966,0.5942,0.5928,0.5901,0.5878,0.586,0.5854,0.5867,0.5869,0.586,0.5856,0.5856,0.5856,0.5959,0.587,0.5871,0.5872,0.5872,0.5872,0.6007,0.5985,0.5975,0.5952,0.5944,0.5932,0.5911,0.591,0.589,0.5869,0.5875,0.5848,0.5838,0.5814,0.5807,0.5786,0.5798,0.5786,0.5783,0.578,0.5776,0.586,0.5782,0.5783,0.5783,0.5783,0.5783,0,0.5923,0.5918,0.5897,0.5879,0.5861,0.5876,0.5863,0.5848,0.5823,0.5813,0.5796,0.5769,0.5747,0.5745,0.5725,0.5709,0.5714,0.5703,0.5704,0.5702,0.5766,0.5775,0.5699,0.5699,0.5699,0.5699,0.5699,0.5699,0.5877,0.5841,0.5843,0.5804,0.5799,0.5772,0.5764,0.5753,0.5745,0.5714,0.5697,0.5695,0.5688,0.5668,0.565,0.565,0.5642,0.5628,0.563,0.5689,0.5698,0.5706,0.5714,0.5626,0.5626,0.5568,0.5567,0.5567]}]]